Weather History for KSSF - December, 2013

Change the Weather History Date:

Monday, December 16, 2013

  Actual Average Record
Temperature  
Mean Temperature 50 °F -  
Max Temperature 68 °F 61 °F 78 °F (2006)
Min Temperature 32 °F 38 °F 30 °F (1999)
Degree Days  
Heating Degree Days 15    
Moisture  
Dew Point 30 °F    
Average Humidity 54    
Maximum Humidity 85    
Minimum Humidity 21    
Precipitation  
Precipitation 0.00 in - - ()
Sea Level Pressure  
Sea Level Pressure 30.27 in    
Wind  
Wind Speed 2 mph (SSW)    
Max Wind Speed 10 mph    
Max Gust Speed -    
Visibility 10 miles    
Events      
Averages and records for this station are not official NWS values.
T = Trace of Precipitation, MM = Missing Value Source: NWS Daily Summary

Daily Weather History Graph

Daily Weather History Graph

Search for Another Location

Airport or City:

Trip Planner

Search our weather history database for the weather conditions in past years. The results will help you decide how hot, cold, wet, or windy it might be!

Date:

Astronomy

Dec. 16, 2013 Rise Set
Actual Time 7:21 AM CST 5:37 PM CST
Civil Twilight 6:55 AM CST 6:04 PM CST
Nautical Twilight 6:25 AM CST 6:33 PM CST
Astronomical Twilight 5:56 AM CST 7:02 PM CST
Moon 5:25 PM CST (12/16) 6:35 AM CST (12/16)
Length of Visible Light 11h 08m
Length of Day
10h 16m
Full, 100% of the Moon is Illuminated
Dec 16
Full
Dec 17
Full
Dec 25
Last Quarter
Jan 1
New
Jan 7
First Quarter

Hourly Weather History & Observations

Time (CST) Temp. Dew Point Humidity Pressure Visibility Wind Dir Wind Speed Gust Speed Precip Events Conditions
12:53 AM 37.9 °F 30.0 °F 73% 30.31 in 10.0 mi Calm Calm - N/A   Clear
1:53 AM 36.0 °F 28.9 °F 76% 30.31 in 10.0 mi Calm Calm - N/A   Clear
2:53 AM 34.0 °F 28.0 °F 79% 30.31 in 9.0 mi Calm Calm - N/A   Clear
3:53 AM 35.1 °F 28.9 °F 78% 30.30 in 7.0 mi Calm Calm - N/A   Clear
4:53 AM 33.1 °F 28.0 °F 82% 30.30 in 8.0 mi Calm Calm - N/A   Clear
5:53 AM 34.0 °F 28.0 °F 79% 30.30 in 9.0 mi Calm Calm - N/A   Clear
6:53 AM 33.1 °F 28.0 °F 82% 30.32 in 10.0 mi Calm Calm - N/A   Clear
7:53 AM 32.0 °F 28.0 °F 85% 30.32 in 8.0 mi Calm Calm - N/A   Clear
8:53 AM 41.0 °F 33.1 °F 73% 30.33 in 9.0 mi Calm Calm - N/A   Clear
9:53 AM 53.1 °F 30.0 °F 41% 30.34 in 10.0 mi WSW 4.6 mph - N/A   Clear
10:53 AM 57.9 °F 28.9 °F 33% 30.32 in 10.0 mi SSW 10.4 mph - N/A   Clear
11:53 AM 62.1 °F 30.0 °F 30% 30.30 in 10.0 mi SW 8.1 mph - N/A   Clear
12:53 PM 64.0 °F 28.0 °F 26% 30.26 in 10.0 mi Variable 6.9 mph - N/A   Clear
1:53 PM 66.9 °F 27.0 °F 22% 30.21 in 10.0 mi SW 8.1 mph - N/A   Clear
2:53 PM 68.0 °F 27.0 °F 21% 30.21 in 10.0 mi Variable 6.9 mph - N/A   Clear
3:53 PM 68.0 °F 28.0 °F 22% 30.20 in 10.0 mi South 9.2 mph - N/A   Clear
4:53 PM 66.9 °F 28.0 °F 23% 30.21 in 10.0 mi South 5.8 mph - N/A   Clear
5:53 PM 62.1 °F 28.9 °F 29% 30.21 in 10.0 mi South 4.6 mph - N/A   Clear
6:53 PM 55.0 °F 30.9 °F 40% 30.22 in 10.0 mi Calm Calm - N/A   Clear
7:53 PM 50.0 °F 32.0 °F 50% 30.23 in 10.0 mi Calm Calm - N/A   Clear
8:53 PM 46.0 °F 32.0 °F 58% 30.25 in 10.0 mi Calm Calm - N/A   Clear
9:53 PM 44.1 °F 33.1 °F 65% 30.26 in 10.0 mi Calm Calm - N/A   Clear
10:53 PM 41.0 °F 32.0 °F 70% 30.27 in 10.0 mi Calm Calm - N/A   Clear
11:53 PM 42.1 °F 33.1 °F 70% 30.27 in 10.0 mi Calm Calm - N/A   Clear